Location: Poughquag
(41.6090°N, 73.6820°W)
Time: 11:05:39
(UTC-04:00)

A-11 Canister half - Pass Details

Date: 04 June 2020
Orbit: 1527 x 1682 km, 47.3° (Epoch: 06 July)

Event Time Altitude Azimuth Distance (km) Brightness Sun altitude
Rises 15:22:17 0° 289° (WNW) 4,760 12.0 53.5°
Reaches altitude 10° 15:26:52 10° 270° (W) 3,802 11.8 52.7°
Maximum altitude 15:32:11 16° 236° (SW) 3,350 11.8 51.8°
Drops below altitude 10° 15:37:36 10° 201° (SSW) 3,861 11.6 50.8°
Sets 15:42:23 0° 182° (S) 4,871 11.8 50.0°
